DL1JBO Weather Reports


time (UTC)temp
C
wind
direction
speed
KPH
gust
KPH
rain 1hr
cm
rain 24hr
cm
rain mn
cm
humidity
%
barometer
mb
20260506044704 12 336 0.0 0.0 0.00 1.55 0.15 95 1002.9
20260506044207 12 314 0.0 0.0 0.00 1.55 0.15 95 1002.9
20260506043704 12 92 0.0 0.0 0.00 1.57 0.15 95 1002.8
20260506043205 12 311 0.0 0.0 0.00 1.57 0.15 95 1002.7
20260506042704 12 46 0.0 0.0 0.00 1.60 0.15 95 1002.7
20260506042204 12 95 0.0 0.0 0.00 1.63 0.15 95 1002.7
20260506041704 12 95 0.0 0.0 0.00 1.65 0.15 95 1002.7
20260506041204 12 95 0.0 0.0 0.00 1.65 0.15 96 1002.7
20260506040704 12 95 0.0 0.0 0.00 1.65 0.15 96 1002.6
20260506040204 12 81 0.0 0.0 0.00 1.65 0.15 96 1002.5
20260506035704 12 315 0.0 0.0 0.00 1.65 0.15 96 1002.5
20260506034704 12 313 0.0 0.0 0.00 1.65 0.15 96 1002.6
20260506034204 12 17 0.0 0.0 0.00 1.65 0.15 96 1002.6
20260506033704 12 65 0.0 0.0 0.00 1.65 0.15 96 1002.6
20260506033205 12 65 0.0 0.0 0.00 1.65 0.15 96 1002.7
20260506032704 12 65 0.0 0.0 0.00 1.65 0.15 96 1002.7
20260506032204 12 65 0.0 0.0 0.00 1.65 0.15 96 1002.7
20260506031704 12 65 0.0 0.0 0.00 1.65 0.15 96 1002.8
20260506031204 12 65 0.0 0.0 0.00 1.65 0.15 96 1002.9
20260506030704 12 65 0.0 0.0 0.00 1.65 0.15 96 1002.9
20260506030207 12 65 0.0 0.0 0.00 1.65 0.15 96 1002.8
20260506025704 12 65 0.0 0.0 0.00 1.65 0.15 96 1002.9
20260506025207 12 65 0.0 0.0 0.00 1.65 0.15 96 1002.9
20260506024704 12 65 0.0 0.0 0.00 1.65 0.15 96 1002.9
20260506024207 12 65 0.0 0.0 0.00 1.65 0.15 96 1003.0
20260506023204 12 65 0.0 0.0 0.00 1.65 0.15 96 1003.1
20260506022704 12 65 0.0 0.0 0.00 1.65 0.15 96 1003.0
20260506022204 12 65 0.0 0.0 0.00 1.65 0.15 96 1003.1
20260506021704 12 65 0.0 0.0 0.00 1.65 0.15 96 1003.1
20260506021205 12 65 0.0 0.0 0.00 1.65 0.15 96 1003.1
20260506020705 12 65 0.0 0.0 0.00 1.65 0.15 96 1003.1
20260506020205 12 65 0.0 0.0 0.00 1.65 0.15 96 1003.1
20260506015704 12 65 0.0 0.0 0.00 1.65 0.15 96 1003.1
20260506015204 12 65 0.0 0.0 0.00 1.65 0.15 96 1003.3
20260506014705 12 65 0.0 0.0 0.00 1.65 0.15 96 1003.4
20260506014204 12 65 0.0 0.0 0.00 1.65 0.15 96 1003.4
20260506013704 12 65 0.0 0.0 0.00 1.65 0.15 96 1003.5
20260506013204 12 65 0.0 0.0 0.00 1.65 0.15 96 1003.5
20260506012704 12 65 0.0 0.0 0.00 1.65 0.15 96 1003.6
20260506012204 12 65 0.0 0.0 0.00 1.65 0.15 96 1003.6
20260506011704 12 65 0.0 0.0 0.00 1.65 0.15 96 1003.6
20260506011204 12 65 0.0 0.0 0.00 1.65 0.15 96 1003.6
20260506010704 12 65 0.0 0.0 0.00 1.65 0.15 96 1003.7
20260506010204 12 65 0.0 0.0 0.00 1.65 0.15 96 1003.7
20260506005704 12 65 0.0 0.0 0.03 1.65 0.15 96 1003.7
20260506005204 12 65 0.0 0.0 0.03 1.65 0.15 96 1003.7
20260506004704 12 65 0.0 0.0 0.03 1.65 0.15 96 1003.8
20260506004204 12 65 0.0 0.0 0.03 1.65 0.15 96 1003.8
20260506002704 12 65 0.0 0.0 0.03 1.65 0.15 96 1004.0
20260506002205 12 65 0.0 0.0 0.03 1.65 0.15 96 1004.0
20260506001703 12 65 0.0 0.0 0.03 1.65 0.15 96 1004.1
20260506001204 12 65 0.0 0.0 0.03 1.65 0.15 96 1004.1
20260506000704 12 65 0.0 0.0 0.03 1.65 0.15 96 1004.3
20260506000205 12 65 0.0 0.0 0.03 1.65 0.15 96 1004.3
20260505235703 12 65 0.0 0.0 0.00 1.63 0.13 96 1004.3
20260505235208 12 65 0.0 0.0 0.00 1.63 0.13 96 1004.4
20260505234704 12 65 0.0 0.0 0.00 1.63 0.13 96 1004.4
20260505234227 12 65 0.0 0.0 0.00 1.63 0.13 96 1004.4
20260505233704 12 65 0.0 0.0 0.03 1.63 0.13 96 1004.4
20260505233204 12 65 0.0 0.0 0.03 1.63 0.13 96 1004.5
20260505232704 12 65 0.0 0.0 0.03 1.63 0.13 96 1004.6
20260505232204 12 65 0.0 0.0 0.05 1.63 0.13 96 1004.5
20260505231707 12 65 0.0 0.0 0.05 1.63 0.13 95 1004.5
20260505231204 12 65 0.0 0.0 0.05 1.63 0.13 95 1004.4
20260505230705 12 65 0.0 0.0 0.08 1.63 0.13 95 1004.4
20260505230207 12 65 0.0 0.0 0.13 1.63 0.13 95 1004.4
20260505225704 12 65 0.0 0.0 0.15 1.63 0.13 95 1004.3
20260505225204 12 65 0.0 0.0 0.20 1.63 0.13 95 1004.2
20260505224704 12 65 0.0 0.0 0.23 1.63 0.13 95 1004.2
20260505224204 12 65 0.0 0.0 0.28 1.60 0.10 95 1004.2
20260505223706 12 65 0.0 0.0 0.33 1.60 0.10 95 1004.1
20260505223204 12 65 0.0 0.0 0.33 1.60 0.10 95 1004.1
20260505222704 12 65 0.0 0.0 0.33 1.57 0.08 95 1004.1
20260505221704 12 65 0.0 0.0 0.43 1.57 0.08 95 1004.2
20260505221222 13 65 0.0 0.0 0.43 1.55 0.05 95 1004.4
20260505220704 13 65 0.0 0.0 0.51 1.55 0.05 95 1004.6
20260505220204 13 65 0.0 0.0 0.53 1.50 1.50 95 1004.6
20260505215704 13 65 0.0 0.0 0.56 1.45 1.45 95 1004.8
20260505215204 13 65 0.0 0.0 0.58 1.40 1.40 95 1005.1
20260505214704 13 65 0.0 0.0 0.61 1.37 1.37 95 1005.2
20260505214204 13 65 0.0 0.0 0.61 1.30 1.30 94 1005.2
20260505213704 13 65 0.0 0.0 0.61 1.27 1.27 94 1005.4
20260505213204 13 65 0.0 0.0 0.61 1.27 1.27 94 1005.5
20260505212704 13 65 0.0 0.0 0.66 1.24 1.24 94 1005.6
20260505212204 13 65 0.0 0.0 0.66 1.19 1.19 94 1005.7
20260505211704 13 65 0.0 0.0 0.61 1.14 1.14 94 1005.8
20260505211204 13 65 0.0 8.0 0.61 1.09 1.04 94 1005.9
20260505210203 14 63 0.0 8.0 0.43 0.91 0.91 93 1005.9
20260505205704 14 17 0.0 1.6 0.41 0.89 0.89 94 1005.9
20260505204704 15 5 0.0 0.0 0.28 0.74 0.74 95 1005.6
20260505204204 15 5 0.0 1.6 0.25 0.71 0.71 94 1005.6
20260505203704 15 5 0.0 1.6 0.23 0.66 0.66 94 1005.4
20260505203204 15 5 0.0 1.6 0.18 0.61 0.61 94 1005.2
20260505202707 14 5 0.0 1.6 0.18 0.58 0.58 94 1004.9
20260505202204 14 5 0.0 1.6 0.15 0.53 0.53 94 1004.5
20260505201204 14 5 0.0 0.0 0.15 0.51 0.51 94 1004.3
20260505200704 14 5 0.0 1.6 0.18 0.51 0.51 93 1004.4
20260505200204 15 5 0.0 1.6 0.23 0.51 0.51 93 1004.3
20260505195204 15 69 0.0 0.0 0.28 0.46 0.46 93 1004.1
20260505194704 15 107 0.0 0.0 0.30 0.43 0.43 92 1004.1
20260505194204 15 107 0.0 0.0 0.28 0.43 0.43 93 1004.2
20260505193705 15 347 0.0 0.0 0.25 0.43 0.43 92 1004.3
20260505193204 15 347 0.0 0.0 0.25 0.43 0.43 92 1004.2
20260505192704 15 347 0.0 0.0 0.23 0.41 0.41 91 1004.2
20260505192204 15 347 0.0 0.0 0.23 0.38 0.38 91 1004.3
20260505191704 15 347 0.0 1.6 0.20 0.36 0.36 91 1004.4
20260505191204 15 347 0.0 1.6 0.18 0.33 0.33 90 1004.3
20260505190704 15 347 0.0 0.0 0.15 0.30 0.30 90 1004.4
20260505190205 15 144 0.0 0.0 0.10 0.25 0.25 90 1004.4
20260505185204 16 144 0.0 0.0 0.00 0.15 0.15 88 1004.5
20260505184704 16 144 0.0 0.0 0.00 0.15 0.15 88 1004.5
20260505183704 16 144 0.0 0.0 0.00 0.15 0.15 87 1004.4
20260505183204 16 144 0.0 0.0 0.00 0.15 0.15 87 1004.4
20260505182704 16 144 0.0 1.6 0.00 0.15 0.15 87 1004.3
20260505182204 16 144 0.0 1.6 0.00 0.15 0.15 86 1004.2
20260505181704 16 144 0.0 1.6 0.00 0.15 0.15 85 1004.2
20260505181204 16 144 0.0 3.2 0.00 0.15 0.15 85 1004.2
20260505180704 16 144 0.0 3.2 0.00 0.15 0.15 84 1004.1
20260505180204 16 144 0.0 3.2 0.00 0.15 0.15 83 1004.0
20260505175704 17 11 0.0 0.0 0.00 0.15 0.15 83 1004.0
20260505175204 17 164 0.0 0.0 0.00 0.15 0.15 83 1004.0
20260505174704 17 142 0.0 0.0 0.00 0.15 0.15 81 1004.2
20260505174205 17 30 0.0 0.0 0.00 0.15 0.15 81 1004.3
20260505173705 17 19 0.0 0.0 0.00 0.15 0.15 81 1004.6
20260505173204 17 19 0.0 0.0 0.00 0.15 0.15 81 1004.8
20260505172704 17 19 0.0 0.0 0.00 0.15 0.15 81 1004.8
20260505172205 17 19 0.0 0.0 0.00 0.15 0.15 81 1004.9
20260505171705 17 19 0.0 0.0 0.00 0.15 0.15 80 1004.9
20260505171204 17 19 0.0 0.0 0.00 0.15 0.15 80 1005.0
20260505170723 18 19 0.0 0.0 0.00 0.15 0.15 80 1005.0
20260505170204 18 19 0.0 0.0 0.00 0.15 0.15 80 1004.9
20260505165704 18 19 0.0 0.0 0.00 0.15 0.15 79 1004.9
20260505165204 18 19 0.0 0.0 0.00 0.15 0.15 79 1004.9
20260505164704 18 57 0.0 0.0 0.00 0.15 0.15 79 1005.0
20260505164204 18 57 0.0 0.0 0.00 0.15 0.15 80 1005.0
20260505163704 18 57 0.0 1.6 0.00 0.15 0.15 79 1005.0
20260505162704 18 57 0.0 1.6 0.00 0.15 0.15 79 1005.1
20260505162204 18 57 0.0 0.0 0.00 0.15 0.15 79 1005.2
20260505161719 18 334 0.0 1.6 0.00 0.15 0.15 79 1005.2
20260505161205 18 333 0.0 1.6 0.00 0.15 0.15 78 1005.2
20260505160229 18 333 0.0 3.2 0.00 0.15 0.15 79 1005.2
20260505153204 19 40 0.0 0.0 0.00 0.15 0.15 77 1005.5
20260505152704 19 75 0.0 0.0 0.00 0.15 0.15 76 1005.6
20260505152204 19 75 0.0 0.0 0.00 0.15 0.15 75 1005.7
20260505151704 19 96 0.0 0.0 0.00 0.15 0.15 74 1005.7
20260505151208 19 26 0.0 0.0 0.00 0.15 0.15 75 1005.8
20260505150705 19 44 0.0 0.0 0.00 0.15 0.15 75 1005.8
20260505150204 19 28 0.0 0.0 0.00 0.15 0.15 72 1005.9
20260505140204 20 337 0.0 3.2 0.00 0.15 0.15 76 1006.3
20260505130205 18 11 0.0 1.6 0.00 0.15 0.15 79 1006.4
20260505124704 18 309 0.0 3.2 0.00 0.15 0.15 79 1006.7
20260505124204 18 309 0.0 3.2 0.00 0.15 0.15 79 1006.8
20260505123704 18 84 0.0 1.6 0.00 0.15 0.15 79 1006.8
20260505123203 18 163 0.0 1.6 0.00 0.15 0.15 81 1006.8
20260505122704 18 176 0.0 1.6 0.00 0.15 0.15 81 1006.8
20260505122204 18 29 0.0 3.2 0.00 0.15 0.15 81 1006.9
20260505121707 18 96 0.0 3.2 0.00 0.15 0.15 80 1006.9
20260505121204 18 82 0.0 1.6 0.00 0.15 0.15 82 1006.9
20260505120204 18 355 0.0 3.2 0.00 0.15 0.15 83 1006.9
20260505115204 18 27 0.0 0.0 0.00 0.15 0.15 85 1007.0
20260505114204 17 344 0.0 0.0 0.00 0.15 0.15 86 1006.9
20260505113707 17 344 0.0 0.0 0.00 0.15 0.15 87 1007.0
20260505113204 17 344 0.0 0.0 0.00 0.15 0.15 86 1007.1
20260505112707 17 344 0.0 0.0 0.00 0.15 0.15 87 1007.1
20260505112204 17 295 0.0 0.0 0.00 0.15 0.15 87 1007.1
20260505111704 17 295 0.0 0.0 0.00 0.15 0.15 89 1007.2
20260505111204 17 295 0.0 1.6 0.00 0.15 0.15 88 1007.3
20260505110205 16 293 0.0 1.6 0.00 0.15 0.15 89 1007.5
20260505102204 16 342 0.0 0.0 0.00 0.15 0.15 92 1007.7
20260505101704 16 342 0.0 0.0 0.00 0.15 0.15 92 1007.7
20260505101204 16 342 0.0 0.0 0.00 0.15 0.15 92 1007.7
20260505100704 16 342 0.0 0.0 0.00 0.15 0.15 93 1007.7
20260505100204 16 342 0.0 0.0 0.00 0.15 0.15 92 1007.6
20260505095704 16 342 0.0 0.0 0.00 0.15 0.15 92 1007.7
20260505094704 16 342 0.0 0.0 0.00 0.15 0.15 92 1007.6
20260505094204 16 342 0.0 0.0 0.00 0.15 0.15 93 1007.6
20260505093704 16 342 0.0 0.0 0.00 0.15 0.15 92 1007.7
20260505093204 15 342 0.0 0.0 0.00 0.15 0.15 93 1007.7
20260505092704 15 342 0.0 0.0 0.00 0.15 0.15 93 1007.7
20260505091704 15 342 0.0 0.0 0.03 0.15 0.15 95 1007.8
20260505091204 15 342 0.0 0.0 0.03 0.15 0.15 95 1007.8
20260505090704 15 342 0.0 0.0 0.03 0.15 0.15 95 1007.9
20260505090204 15 342 0.0 0.0 0.03 0.15 0.15 95 1007.9
20260505085704 15 342 0.0 0.0 0.03 0.15 0.15 95 1008.0
20260505084205 14 342 0.0 0.0 0.03 0.15 0.15 95 1008.0
20260505083704 14 342 0.0 0.0 0.03 0.15 0.15 95 1008.2
20260505083204 14 342 0.0 0.0 0.03 0.15 0.15 95 1008.2
20260505082704 14 342 0.0 0.0 0.03 0.15 0.15 95 1008.2
20260505082205 14 342 0.0 0.0 0.03 0.15 0.15 95 1008.2
20260505081204 14 342 0.0 0.0 0.00 0.15 0.15 95 1008.2
20260505080704 14 342 0.0 0.0 0.00 0.15 0.15 95 1008.3
20260505080204 14 342 0.0 0.0 0.00 0.15 0.15 95 1008.2
20260505075704 14 342 0.0 0.0 0.00 0.15 0.15 96 1008.2
20260505075204 14 342 0.0 0.0 0.00 0.15 0.15 96 1008.0
20260505074704 14 342 0.0 0.0 0.00 0.15 0.15 95 1008.2
20260505074204 14 342 0.0 0.0 0.00 0.15 0.15 95 1008.2
20260505073704 14 342 0.0 0.0 0.00 0.15 0.15 95 1008.2
20260505073204 14 342 0.0 0.0 0.00 0.15 0.15 95 1008.0
20260505072705 14 342 0.0 0.0 0.00 0.15 0.15 95 1008.2
20260505072207 13 342 0.0 0.0 0.00 0.15 0.15 95 1008.0
20260505071704 13 342 0.0 0.0 0.00 0.15 0.15 95 1008.0
20260505070719 13 342 0.0 0.0 0.03 0.15 0.15 95 1008.2
20260505070204 13 342 0.0 0.0 0.03 0.15 0.15 95 1008.0
20260505065704 13 342 0.0 0.0 0.03 0.15 0.15 95 1008.2
20260505064704 13 342 0.0 0.0 0.03 0.15 0.15 95 1008.2
20260505064204 13 342 0.0 0.0 0.03 0.15 0.15 95 1008.4
20260505063204 13 342 0.0 0.0 0.05 0.15 0.15 95 1008.4
20260505062704 13 342 0.0 0.0 0.05 0.15 0.15 95 1008.5
20260505062204 13 342 0.0 0.0 0.05 0.15 0.15 95 1008.5
20260505061704 13 342 0.0 0.0 0.05 0.15 0.15 95 1008.6
20260505061204 13 342 0.0 0.0 0.03 0.13 0.13 95 1008.7
20260505060204 13 342 0.0 0.0 0.03 0.13 0.13 95 1008.8